[[{"header":{"parameterUnit":"m.s-1","parameterCategory":1,"la1":30.2991,"la2":30.254,"lo1":-89.0895,"lo2":-89.0444,"dy":0.0017,"dx":0.0017,"nx":28,"ny":28,"refTime":"2025-08-22T21:00:00:Z","depth":0,"parameterNumber":2,"parameterNumberName":"U-component_of_WINDS"},"data":[0,0,0,0,0,0,0,0,0,0,0,0,0,0,0,0,0,0,0,0,0,0,0,0,0,0,0,0,0,0,0,0,0,0,0,0,0,0,0,0,0,0,0,0,0,0,0,0,0,0,0,0,0,0,0,0,0,0,0.929,0.9291,0,0.9373,0.9374,0.9375,0.9408,0.9408,0.9408,0.9408,0.9497,0.95,0.9502,0,0,0,0,0,0,0,0,0,0,0,0,0,0.9165,0.9167,0.929,0.9291,0.9292,0.9373,0.9374,0.9375,0.9408,0.9408,0.9408,0.9408,0.9496,0.9499,0.9502,0,0,0,0,0,0,0,0,0,0,0,0,0,0.9231,0.9168,0.929,0.9318,0.9322,0.9373,0.9374,0.9376,0.9408,0.9408,0.9408,0.9407,0.9495,0.9499,0.9503,0.9533,0,0,0.9515,0.9516,0,0,0,0,0,0,0,0,0.9227,0.9236,0.9313,0.9316,0.932,0.938,0.9363,0.9429,0.9409,0.9376,0.9408,0.9407,0.9459,0.9465,0.9482,0.9537,0.9541,0.9515,0.9517,0.9519,0.952,0,0,0,0,0,0,0,0.9223,0.9232,0.9323,0.9314,0.9319,0.9329,0.9338,0.9376,0.9418,0.9378,0.9381,0.939,0.9461,0.9478,0.9484,0.9542,0.9515,0.9518,0.9521,0.9522,0.9629,0.963,0,0,0,0,0,0,0.9213,0.9228,0.932,0.9326,0.9272,0.9331,0.9341,0.9361,0.9418,0.9426,0.939,0.9391,0.9472,0.948,0.9488,0.9528,0.9519,0.9523,0.9525,0.9629,0.963,0.963,0,0,0,0,0,0,0.921,0.9221,0.9317,0.9278,0.9291,0.9333,0.9356,0.9363,0.9381,0.9427,0.9435,0.94,0.9472,0.9482,0.9522,0.9532,0.9524,0.9528,0.9628,0.9629,0.963,0.9609,0,0,0,0,0,0,0.9206,0.9219,0.923,0.9278,0.9293,0.9348,0.9356,0.9365,0.9387,0.9389,0.9438,0.9446,0.9472,0.9516,0.9526,0.9537,0.9531,0.9628,0.9629,0.963,0.9609,0.9609,0.9609,0,0,0,0,0,0.9201,0.9221,0.923,0.9241,0.9307,0.9349,0.9358,0.9386,0.9387,0.9399,0.9429,0.9444,0.9529,0.952,0.9531,0.9544,0.9627,0.9628,0.9629,0.9609,0.9609,0.9609,0,0,0,0,0,0,0.9175,0.9228,0.9239,0.9274,0.9306,0.9354,0.937,0.9385,0.9419,0.942,0.9455,0.9466,0.9503,0.9527,0.9516,0.9577,0.9579,0.9583,0.956,0.956,0.956,0.9554,0.9534,0,0,0,0,0,0.9173,0.9201,0.9247,0.9274,0.9289,0.9327,0.9346,0.9366,0.9401,0.9416,0.9448,0.9484,0.9518,0.9541,0.9575,0.9613,0.9625,0.9627,0.9627,0.9627,0.963,0.9654,0.9656,0.9634,0.9634,0.9634,0,0,0.917,0.9202,0.9218,0.9269,0.9297,0.9327,0.9338,0.9369,0.9393,0.9421,0.946,0.9486,0.9528,0.9567,0.9586,0.9588,0.9638,0.9628,0.9628,0.9631,0.9655,0.9657,0.9659,0.9635,0.9635,0.9634,0,0,0.9179,0.9206,0.9232,0.9259,0.93,0.9325,0.9332,0.9377,0.9395,0.9435,0.9457,0.9486,0.9545,0.9574,0.9597,0.9619,0.9635,0.9629,0.963,0.9652,0.9654,0.9656,0.9665,0.9668,0.9632,0.9632,0.9632,0,0.917,0.9215,0.9244,0.9274,0.9297,0.9323,0.9351,0.9376,0.9427,0.9443,0.9444,0.9519,0.9549,0.9597,0.9602,0.9619,0.9629,0.9624,0.9651,0.9653,0.9655,0.9665,0.9668,0.9631,0.9631,0.9631,0.9631,0,0.9203,0.9234,0.9251,0.9298,0.9323,0.9352,0.9387,0.9408,0.9426,0.9451,0.9493,0.953,0.9573,0.9585,0.9603,0.9636,0.9636,0.9644,0.9647,0.9656,0.9666,0.967,0.963,0.963,0.963,0.9631,0,0,0.9198,0.9261,0.9267,0.929,0.9337,0.9363,0.9394,0.9435,0.9454,0.9488,0.9517,0.9566,0.9574,0.96,0.9621,0.9641,0.9658,0.9647,0.9648,0.9649,0.9699,0.9694,0.9698,0.9669,0.967,0.967,0.9696,0,0.9215,0.927,0.9297,0.9341,0.9372,0.9397,0.9425,0.9458,0.9483,0.9514,0.9542,0.9577,0.9584,0.96,0.962,0.9652,0.9669,0.965,0.9698,0.9699,0.9687,0.9702,0.9697,0.9719,0.97,0.9701,0.9701,0,0.9241,0.9275,0.9322,0.9368,0.9382,0.9405,0.9446,0.9475,0.9514,0.9531,0.956,0.9581,0.9617,0.9617,0.9668,0.9654,0.9676,0.9694,0.9696,0.9702,0.9701,0.9711,0.9727,0.9731,0.9707,0.9707,0.9706,0,0.9235,0.9292,0.9328,0.9346,0.94,0.9417,0.944,0.9479,0.9503,0.9539,0.9555,0.9595,0.9617,0.9649,0.9681,0.9678,0.973,0.9732,0.9747,0.9746,0.9758,0.9757,0.9779,0.9769,0.9769,0.9769,0.9769,0,0.9251,0.9279,0.9325,0.9347,0.9381,0.9413,0.9445,0.9471,0.9506,0.9535,0.956,0.9587,0.9627,0.966,0.9685,0.9725,0.9735,0.9751,0.9758,0.9749,0.9748,0.9765,0.9765,0.977,0.9769,0.9769,0.9769,0,0.9249,0.9281,0.9322,0.937,0.9383,0.9405,0.9447,0.9471,0.9497,0.9534,0.9545,0.9587,0.9627,0.9662,0.9715,0.9732,0.9774,0.9781,0.976,0.9764,0.9777,0.9776,0.9813,0.982,0.9803,0.9803,0.9803,0,0.9258,0.928,0.933,0.9351,0.9374,0.9407,0.9431,0.9465,0.9489,0.9537,0.9555,0.9597,0.9632,0.9695,0.9732,0.9773,0.9783,0.9793,0.9789,0.9781,0.9785,0.9784,0.9788,0.9793,0.9793,0.9793,0.9793,0,0.927,0.9285,0.9319,0.9358,0.9386,0.9419,0.9452,0.9469,0.9509,0.9535,0.9576,0.9603,0.9658,0.97,0.9746,0.9772,0.979,0.9794,0.98,0.9792,0.978,0.9789,0.9762,0.9793,0.9793,0.9793,0.9793,0.9793,0.9275,0.9297,0.9336,0.9373,0.9402,0.9433,0.9458,0.9488,0.9522,0.9568,0.9586,0.9629,0.967,0.9733,0.9759,0.9794,0.9797,0.9806,0.9808,0.981,0.9809,0.9773,0.9803,0.9803,0.9803,0.9803,0.9803,0,0.929,0.9317,0.9351,0.9397,0.9427,0.944,0.9478,0.9503,0.9539,0.9575,0.961,0.9658,0.9699,0.9739,0.9783,0.9804,0.9813,0.9814,0.9814,0.982,0.9803,0.9794,0.9806,0.9806,0.9806,0.9806,0.9806,0.9806,0.9302,0.934,0.936,0.9413,0.9441,0.9481,0.9503,0.9533,0.9562,0.9614,0.9648,0.9674,0.9713,0.976,0.9799,0.981,0.9826,0.9825,0.9838,0.9822,0.9821,0.982,0.9812,0.9827,0.9827,0.9852,0.9853,0.9853]},{"header":{"parameterUnit":"m.s-1","parameterCategory":1,"la1":30.2991,"la2":30.254,"lo1":-89.0895,"lo2":-89.0444,"dy":0.0017,"dx":0.0017,"nx":28,"ny":28,"refTime":"2025-08-22T21:00:00:Z","depth":0,"parameterNumber":3,"parameterNumberName":"V-component_of_WINDS"},"data":[0,0,0,0,0,0,0,0,0,0,0,0,0,0,0,0,0,0,0,0,0,0,0,0,0,0,0,0,0,0,0,0,0,0,0,0,0,0,0,0,0,0,0,0,0,0,0,0,0,0,0,0,0,0,0,0,0,0,0.2859,0.2859,0,0.2836,0.2836,0.2836,0.2801,0.2801,0.28,0.28,0.2776,0.2776,0.2776,0,0,0,0,0,0,0,0,0,0,0,0,0,0.2871,0.2871,0.2859,0.2859,0.2858,0.2836,0.2836,0.2836,0.2801,0.2801,0.28,0.2799,0.2776,0.2776,0.2776,0,0,0,0,0,0,0,0,0,0,0,0,0,0.2859,0.2871,0.2859,0.2839,0.2837,0.2836,0.2836,0.2836,0.2802,0.2801,0.28,0.2799,0.2776,0.2776,0.2776,0.2793,0,0,0.2776,0.2776,0,0,0,0,0,0,0,0,0.286,0.2858,0.2842,0.284,0.2838,0.2821,0.2831,0.2821,0.2802,0.2815,0.28,0.2799,0.2792,0.279,0.2788,0.2792,0.2791,0.2776,0.2775,0.2775,0.2775,0,0,0,0,0,0,0,0.286,0.2859,0.285,0.2842,0.2839,0.283,0.2827,0.2829,0.2809,0.2814,0.2811,0.2809,0.279,0.2788,0.2787,0.2791,0.2776,0.2775,0.2775,0.2775,0.2806,0.2807,0,0,0,0,0,0,0.2864,0.286,0.2851,0.2849,0.2847,0.2831,0.2828,0.2827,0.2808,0.2805,0.281,0.2807,0.2789,0.2787,0.2786,0.2803,0.2775,0.2775,0.2775,0.2805,0.2806,0.2807,0,0,0,0,0,0,0.2865,0.2864,0.2852,0.2854,0.2852,0.2831,0.2831,0.2827,0.2825,0.2806,0.2802,0.2811,0.2788,0.2786,0.2791,0.2802,0.2775,0.2775,0.2804,0.2805,0.2806,0.2839,0,0,0,0,0,0,0.2865,0.2864,0.2871,0.2854,0.2852,0.2858,0.2832,0.2827,0.2825,0.2822,0.2806,0.2803,0.2787,0.2792,0.2791,0.2801,0.2775,0.2803,0.2804,0.2806,0.2837,0.2841,0.2845,0,0,0,0,0,0.2866,0.2882,0.2872,0.2871,0.286,0.2858,0.2857,0.2839,0.2826,0.2832,0.2819,0.2803,0.2801,0.2792,0.2792,0.2802,0.2802,0.2804,0.2806,0.2835,0.284,0.2845,0,0,0,0,0,0,0.2901,0.2879,0.2868,0.2879,0.2871,0.2853,0.286,0.2845,0.2841,0.2838,0.2815,0.2812,0.2819,0.2811,0.2802,0.2817,0.2799,0.2801,0.2821,0.2826,0.283,0.2831,0.2775,0,0,0,0,0,0.291,0.2911,0.2892,0.2903,0.29,0.2881,0.2879,0.2866,0.2857,0.2853,0.2841,0.2832,0.2829,0.2827,0.2824,0.2836,0.2831,0.2843,0.2847,0.285,0.2851,0.2855,0.2859,0.2813,0.2813,0.2813,0,0,0.2929,0.2917,0.2919,0.291,0.2902,0.2902,0.2878,0.288,0.288,0.2853,0.2856,0.2847,0.2836,0.2843,0.2846,0.2837,0.2863,0.2853,0.2855,0.2855,0.2857,0.2861,0.2865,0.2815,0.2814,0.2814,0,0,0.2962,0.2954,0.2962,0.2954,0.2942,0.2929,0.2931,0.2915,0.2907,0.291,0.2889,0.2889,0.2885,0.2877,0.2872,0.2901,0.2885,0.29,0.2921,0.2924,0.2928,0.2931,0.2939,0.2942,0.2902,0.2902,0.2902,0,0.2987,0.2987,0.2968,0.297,0.2966,0.2942,0.2948,0.2942,0.2929,0.2926,0.2916,0.2909,0.29,0.2904,0.2911,0.2909,0.2909,0.2901,0.2929,0.2932,0.2935,0.2942,0.2945,0.2904,0.2904,0.2904,0.2903,0,0.3016,0.3016,0.3024,0.3011,0.3008,0.3013,0.2994,0.2993,0.298,0.2967,0.297,0.2957,0.295,0.295,0.2938,0.2952,0.2947,0.2933,0.2915,0.2941,0.2947,0.295,0.2907,0.2906,0.2905,0.2905,0,0,0.3071,0.3047,0.305,0.3043,0.3027,0.3027,0.303,0.3022,0.302,0.3013,0.3013,0.301,0.2997,0.2991,0.2978,0.2981,0.3002,0.2967,0.2966,0.2972,0.3014,0.3023,0.3026,0.2991,0.2992,0.2992,0.3014,0,0.3099,0.3103,0.3085,0.3093,0.3091,0.3068,0.307,0.306,0.3049,0.3045,0.3033,0.303,0.3014,0.301,0.3012,0.2999,0.3009,0.2997,0.299,0.299,0.2992,0.303,0.304,0.3061,0.3017,0.3017,0.3018,0,0.3133,0.3126,0.3134,0.3115,0.3114,0.3117,0.3107,0.3105,0.3092,0.3084,0.3077,0.3061,0.3061,0.3045,0.3044,0.3036,0.3032,0.3025,0.3025,0.3023,0.3004,0.3026,0.3068,0.307,0.3022,0.3022,0.3021,0,0.3169,0.3162,0.3165,0.316,0.314,0.3141,0.3133,0.312,0.3116,0.3107,0.3104,0.3096,0.3091,0.3085,0.3067,0.3057,0.3067,0.305,0.3059,0.3059,0.3061,0.3061,0.31,0.3062,0.3062,0.3062,0.3062,0,0.3202,0.3207,0.318,0.3182,0.3186,0.3165,0.317,0.3159,0.3147,0.3146,0.3126,0.3124,0.3101,0.3097,0.3083,0.3083,0.3082,0.3073,0.3069,0.3074,0.3075,0.307,0.3067,0.3063,0.3062,0.3062,0.3062,0,0.3242,0.3225,0.3226,0.3206,0.3201,0.3205,0.3188,0.3188,0.3175,0.3173,0.3171,0.3151,0.3144,0.3126,0.3116,0.3106,0.3109,0.3103,0.3113,0.311,0.3119,0.3118,0.3155,0.3158,0.312,0.3121,0.3121,0,0.3263,0.3266,0.3246,0.3244,0.3236,0.3232,0.3227,0.3207,0.3203,0.3188,0.319,0.3182,0.3174,0.3165,0.3149,0.314,0.3132,0.3146,0.3131,0.3135,0.313,0.3129,0.3128,0.3149,0.3149,0.315,0.315,0,0.3301,0.3292,0.3286,0.3277,0.3272,0.3264,0.3254,0.3253,0.323,0.3226,0.3219,0.3214,0.3202,0.3194,0.3182,0.3173,0.3157,0.3155,0.3156,0.316,0.3165,0.3161,0.312,0.3154,0.3154,0.3153,0.3153,0.3153,0.3331,0.3332,0.3317,0.3311,0.3302,0.3293,0.3291,0.3278,0.3272,0.326,0.3249,0.3243,0.3229,0.3212,0.3203,0.3198,0.3189,0.3192,0.3192,0.3192,0.3194,0.3168,0.3196,0.3196,0.3196,0.3195,0.3195,0,0.3366,0.3355,0.335,0.3337,0.3331,0.3317,0.3306,0.3302,0.3297,0.3285,0.3278,0.3269,0.3261,0.3244,0.3234,0.3232,0.3225,0.323,0.3229,0.3227,0.3203,0.3202,0.3236,0.3236,0.3236,0.3236,0.3236,0.3236,0.3384,0.3383,0.3372,0.3367,0.3356,0.335,0.3344,0.3335,0.3326,0.3317,0.3309,0.3298,0.3284,0.3272,0.3264,0.3259,0.3255,0.3262,0.3255,0.3233,0.3229,0.3225,0.3224,0.3262,0.3262,0.3279,0.3279,0.3279]}]]